Location: Hylvaty SDH
(49.9612°N, 16.4057°E)
Time: 20:20:48
(UTC+02:00)

Transit 4A - Pass Details

Date: 13 August 2020
Orbit: 862 x 982 km, 66.8° (Epoch: 28 September)

Event Time Altitude Azimuth Distance (km) Brightness Sun altitude
Rises 16:52:28 0° 323° (NW) 3,638 11.3 31.2°
Reaches altitude 10° 16:55:07 10° 329° (NNW) 2,704 10.6 30.8°
Maximum altitude 17:01:15 48° 44° (NE) 1,250 8.6 29.8°
Drops below altitude 10° 17:07:26 10° 118° (ESE) 2,732 10.0 28.8°
Sets 17:10:06 0° 124° (ESE) 3,678 10.6 28.4°
